sat.trackr.live / text

‹ back to catalog

ONEWEB-0394

NORAD 50474 · 2021-132F

PAYLOAD ACTIVE UNKNOWN

§ Identity

Operator
Country
UK
Launch date
2021-12-27
Launch site
TYMSC
Launch vehicle
Mass (kg)
RCS (m²)

Purposes: comms

External: N2YO · Heavens-Above · Gunter

§ Orbital elements

Epoch: 2026-09-19T22:39:00.705024Z

Period
109.20 min
Inclination
87.9166°
Eccentricity
0.0002110
Mean motion
13.18686211 rev/d
Perigee alt
1,188.1 km
Apogee alt
1,191.3 km
Semi-major
7,567.9 km
B*
5.0047e-5
RAAN
316.6176°
Arg perigee
97.4974°
Mean anomaly
262.6398°
Rev number
23,408

§ Raw data

ONEWEB-03941 50474U 21132F   26262.94375816  .00000033  00000+0  50047-4 0  99952 50474  87.9166 316.6176 0002110  97.4974 262.6398 13.18686211234083

JSON: /api/v1/satellites/50474 · /tle

For live sub-satellite position, see the globe view (requires WebGL).

§ Visibility from observer

Set your observer location to see the next 7 days of passes ≥ 10°. The values pass through the URL so the page stays shareable.

No JS? Fill the form by hand. The geolocation button needs JavaScript.